1528470000.65,48270,21.06,74284.5,11.69,0.71,-1.17,0,*57
1528470001.88,48271,21.06,74284.3,11.69,0.71,-1.13,0,*52
1528470003.08,48272,21.06,74284.5,11.69,0.75,-1.17,0,*51
1528470004.28,48273,21.06,74284.5,11.69,0.67,-1.25,0,*52
1528470005.52,48274,21.06,74286.3,11.69,0.55,-1.35,0,*55
1528470006.79,48275,21.13,74286.5,11.71,0.55,-1.39,0,*51
1528470008.02,48276,21.06,74286.8,11.71,0.59,-1.29,0,*5F
1528470009.25,48277,21.06,74282.0,11.69,0.59,-1.35,0,*5A
1528470010.52,48278,21.06,74284.5,11.71,0.55,-1.35,0,*50
1528470011.76,48279,21.13,74284.3,11.69,0.55,-1.35,0,*58
1528470013.0,48280,21.13,74286.3,11.67,0.71,-1.21,0,*53
1528470014.23,48281,21.06,74286.5,11.71,0.71,-1.17,0,*50
1528470015.46,48282,21.06,74286.0,11.71,0.59,-1.25,0,*58
1528470016.66,48283,21.06,74284.5,11.69,0.37,-1.59,0,*53
1528470017.9,48284,21.13,74288.0,11.71,0.13,-1.75,0,*55
1528470019.1,48285,21.13,74286.3,11.69,0.43,-1.39,0,*50
1528470020.34,48286,21.06,74284.5,11.69,0.47,-1.39,0,*57
1528470021.54,48287,21.13,74286.5,11.69,0.67,-1.29,0,*55
1528470022.74,48288,21.06,74284.5,11.69,0.67,-1.25,0,*56
1528470023.95,48289,21.06,74284.0,11.69,0.71,-1.17,0,*51
1528470025.17,48290,21.06,74286.0,11.69,0.75,-1.13,0,*59
1528470026.38,48291,21.13,74286.3,11.69,0.67,-1.17,0,*5F
1528470027.64,48292,21.13,74288.5,11.71,0.59,-1.35,0,*58
1528470028.84,48293,21.06,74284.5,11.69,0.43,-1.35,0,*5B
1528470030.07,48294,21.06,74284.3,11.69,0.37,-1.39,0,*53
1528470031.3,48295,21.06,74284.3,11.69,0.37,-1.47,0,*5B
1528470032.51,48296,21.06,74284.0,11.69,0.13,-1.67,0,*5C
1528470033.72,48297,21.13,74290.8,11.69,0.13,-1.67,0,*5D
1528470034.95,48298,21.13,74288.0,11.69,0.33,-1.47,0,*52
1528470036.16,48299,21.13,74288.5,11.69,0.47,-1.29,0,*58
1528470037.37,48300,21.06,74282.3,11.69,0.47,-1.25,0,*55
1528470038.6,48301,21.06,74286.0,11.67,0.43,-1.39,0,*53
1528470039.79,48302,21.06,74284.3,11.67,0.43,-1.33,0,*5A
1528470041.0,48303,21.06,74284.0,11.65,0.51,-1.25,0,*5D
1528470042.23,48304,21.13,74288.3,11.67,0.55,-1.17,0,*5D
1528470043.46,48305,21.06,74284.5,11.69,0.59,-1.13,0,*5A
1528470044.67,48306,21.06,74286.5,11.69,0.47,-1.17,0,*52
1528470045.88,48307,21.13,74288.5,11.69,0.55,-1.17,0,*50
1528470047.11,48308,21.13,74288.0,11.69,0.37,-1.35,0,*5B
1528470048.32,48309,21.13,74286.3,11.67,0.09,-1.63,0,*6A
1528470049.55,48310,21.06,74286.8,11.67,0.17,-1.55,0,*58
1528470050.8,48311,21.06,74284.5,11.67,0.29,-1.43,0,*53
1528470052.03,48312,21.06,74284.8,11.67,0.33,-1.29,0,*57
1528470053.26,48313,21.06,74284.0,11.65,0.29,-1.35,0,*52
1528470054.49,48314,21.06,74286.8,11.67,0.33,-1.29,0,*51
1528470055.72,48315,21.13,74286.5,11.67,0.29,-1.29,0,*5B
1528470056.92,48316,21.06,74284.5,11.65,0.37,-1.21,0,*5D
1528470058.15,48317,21.06,74286.0,11.67,0.51,-1.17,0,*5B
1528470059.41,48318,21.06,74284.5,11.67,0.41,-1.09,0,*5A
1528470060.64,48319,21.06,74286.3,11.67,0.41,-1.17,0,*54
1528470061.86,48320,21.06,74286.8,11.67,0.33,-1.17,0,*5B
1528470063.12,48321,21.06,74286.0,11.67,0.21,-1.39,0,*55
1528470064.35,48322,21.13,74284.3,11.67,0.21,-1.33,0,*5C
1528470065.58,48323,21.06,74284.0,11.67,0.29,-1.21,0,*56
1528470066.81,48324,21.06,74284.8,11.67,0.17,-1.29,0,*54
1528470068.04,48325,21.06,74286.5,11.67,0.17,-1.29,0,*55
1528470069.27,48326,21.06,74284.8,11.67,0.09,-1.39,0,*68
1528470070.5,48327,21.06,74284.8,11.67,0.21,-1.29,0,*52
1528470071.73,48328,21.13,74290.8,11.67,0.33,-1.21,0,*56
1528470072.99,48329,21.13,74290.3,11.67,0.33,-1.05,0,*51
1528470074.19,48330,21.13,74288.8,11.67,0.09,-1.33,0,*65
1528470075.4,48331,21.06,74280.8,11.65,-0.07,-1.43,0,*42
1528470076.64,48332,21.06,74286.8,11.67,-0.23,-1.55,0,*72
1528470077.85,48333,21.06,74282.8,11.65,-0.11,-1.47,0,*73
1528470079.06,48334,21.06,74284.5,11.65,-0.07,-1.43,0,*47
1528470080.26,48335,21.06,74286.8,11.65,0.01,-1.35,0,*6C
1528470081.49,48336,21.13,74286.3,11.65,0.25,-1.09,0,*56
1528470082.72,48337,21.06,74284.8,11.67,-0.07,-1.39,0,*4B
1528470083.94,48338,21.06,74284.5,11.65,-0.11,-1.35,0,*7D
1528470085.12,48339,21.13,74286.3,11.65,-0.07,-1.25,0,*4A
1528470086.34,48340,21.06,74286.0,11.65,0.13,-1.13,0,*59
1528470087.56,48341,21.06,74286.0,11.65,0.13,-1.13,0,*58
1528470088.76,48342,21.06,74284.8,11.65,0.05,-1.09,0,*67
1528470089.94,48343,21.06,74284.3,11.65,0.01,-1.21,0,*68
1528470091.12,48344,21.13,74288.3,11.65,-0.07,-1.33,0,*47
1528470092.31,48345,21.13,74284.3,11.65,0.01,-1.13,0,*6F
1528470093.55,48346,21.06,74286.5,11.67,-0.03,-1.09,0,*4A
1528470094.75,48347,21.06,74284.0,11.65,-0.07,-1.13,0,*46
1528470095.94,48348,21.06,74288.0,11.65,-0.11,-1.21,0,*7F
1528470097.14,48349,21.06,74284.5,11.65,0.05,-0.97,0,*5A
1528470098.34,48350,21.06,74284.5,11.65,0.05,-1.01,0,*6C
1528470099.54,48351,21.06,74284.8,11.63,-0.07,-1.13,0,*47
1528470100.77,48352,21.06,74286.8,11.67,0.09,-0.89,0,*51
1528470101.96,48353,21.06,74284.0,11.65,0.01,-0.93,0,*51
1528470103.16,48354,21.06,74286.8,11.65,-0.07,-1.01,0,*47
1528470104.4,48355,21.06,74282.8,11.67,-0.19,-1.09,0,*73
1528470105.64,48356,21.06,74286.3,11.65,-0.23,-1.09,0,*7B
1528470106.83,48357,21.06,74282.8,11.65,-0.07,-0.93,0,*7E
1528470108.02,48358,21.13,74290.3,11.65,0.01,-0.93,0,*5A
1528470109.21,48359,21.06,74286.5,11.65,0.01,-0.85,0,*5C
1528470110.41,48360,21.06,74284.0,11.63,-0.07,-0.85,0,*7B
1528470111.62,48361,21.13,74290.5,11.65,-0.11,-0.97,0,*48
1528470112.8,48362,21.06,74284.0,11.65,-0.49,-1.33,0,*79
1528470114.04,48363,21.13,74286.3,11.65,-0.23,-1.01,0,*75
1528470115.25,48364,21.06,74284.0,11.65,-0.11,-0.93,0,*49
1528470116.45,48365,21.06,74286.8,11.63,-0.07,-0.85,0,*7E
1528470117.65,48366,21.06,74284.5,11.65,-0.15,-0.85,0,*48
1528470118.88,48367,21.06,74284.5,11.65,-0.23,-0.93,0,*4B
1528470120.09,48368,21.06,74284.5,11.65,-0.37,-1.01,0,*7B
1528470121.3,48369,21.06,74284.5,11.65,-0.33,-1.01,0,*7E
1528470122.49,48370,21.06,74284.8,11.65,-0.11,-0.73,0,*42
1528470123.67,48371,21.06,74286.3,11.63,-0.15,-0.81,0,*4C
1528470124.86,48372,21.06,74284.3,11.63,-0.11,-0.81,0,*4B
1528470126.05,48373,21.06,74284.8,11.63,-0.11,-0.69,0,*4C
1528470127.23,48374,21.06,74284.8,11.63,-0.07,-0.61,0,*74
1528470128.41,48375,21.06,74284.5,11.65,-0.33,-0.81,0,*4A
1528470129.62,48376,21.06,74286.8,11.65,-0.27,-0.81,0,*4C
1528470130.8,48377,21.06,74286.3,11.65,-0.33,-0.81,0,*48
1528470131.99,48378,21.06,74286.8,11.65,-0.37,-0.81,0,*43
1528470133.22,48379,21.06,74280.8,11.67,-0.53,-0.97,0,*45
1528470134.43,48380,21.06,74286.3,11.65,-0.73,-1.13,0,*7E
1528470135.64,48381,21.06,74284.3,11.65,-0.69,-1.09,0,*7F
1528470136.85,48382,21.13,74288.8,11.63,-0.93,-1.25,0,*71
1528470138.07,48383,21.06,74284.8,11.63,-0.81,-1.13,0,*76
1528470139.3,48384,21.06,74286.8,11.61,-0.65,-0.97,0,*44
1528470140.5,48385,21.06,74284.5,11.63,-0.49,-0.85,0,*4A
1528470141.71,48386,21.06,74286.8,11.61,-0.49,-0.77,0,*46
1528470142.9,48387,21.13,74288.3,11.63,-0.49,-0.73,0,*41
1528470144.14,48388,21.06,74284.0,11.61,-0.27,-0.45,0,*41
1528470145.35,48389,21.06,74284.5,11.61,-0.29,-0.49,0,*42
1528470146.56,48390,21.06,74282.8,11.61,-0.37,-0.53,0,*4E
1528470147.77,48391,21.06,74284.3,11.63,-0.27,-0.45,0,*4B
1528470148.95,48392,21.06,74284.0,11.63,-0.37,-0.57,0,*4A
1528470150.15,48393,21.06,74286.8,11.63,-0.57,-0.73,0,*4B
1528470151.33,48394,21.06,74286.0,11.63,-0.61,-0.69,0,*42
1528470152.53,48395,21.06,74286.0,11.61,-0.61,-0.61,0,*49
1528470153.73,48396,21.06,74286.0,11.61,-0.53,-0.61,0,*4B
1528470154.92,48397,21.06,74284.3,11.63,-0.49,-0.49,0,*49
1528470156.11,48398,21.06,74286.3,11.63,-0.49,-0.49,0,*46
1528470157.32,48399,21.06,74284.5,11.61,-0.61,-0.49,0,*4F
1528470158.52,48400,21.06,74284.5,11.61,-0.65,-0.61,0,*46
1528470159.74,48401,21.06,74286.3,11.61,-0.73,-0.65,0,*44
1528470160.97,48402,21.06,74284.0,11.61,-0.85,-0.77,0,*4D
1528470162.18,48403,21.13,74288.0,11.61,-0.73,-0.65,0,*46
1528470163.4,48404,21.06,74286.8,11.61,-0.73,-0.53,0,*44
1528470164.64,48405,21.06,74286.0,11.61,-0.89,-0.73,0,*42
1528470165.88,48406,21.06,74286.5,11.61,-0.97,-0.77,0,*4A
1528470167.14,48407,21.06,74286.0,11.61,-1.01,-0.85,0,*78
1528470168.38,48408,21.06,74284.5,11.61,-0.89,-0.53,0,*4D
1528470169.61,48409,21.06,74286.0,11.61,-0.85,-0.65,0,*45
1528470170.84,48410,21.06,74284.8,11.61,-0.97,-0.65,0,*4E
1528470172.05,48411,21.06,74286.0,11.59,-0.85,-0.53,0,*42
1528470173.26,48412,21.06,74284.8,11.59,-0.89,-0.53,0,*4D
1528470174.45,48413,21.06,74284.3,11.59,-0.77,-0.49,0,*46
1528470175.64,48414,21.13,74286.3,11.59,-0.73,-0.37,0,*4C
1528470176.82,48415,21.06,74284.5,11.59,-0.73,-0.29,0,*42
1528470178.06,48416,21.06,74286.0,11.61,-0.85,-0.49,0,*45
1528470179.28,48417,21.13,74288.5,11.59,-1.01,-0.49,0,*72
1528470180.5,48418,21.06,74284.8,11.59,-0.89,-0.49,0,*4C
1528470181.71,48419,21.06,74286.3,11.59,-0.89,-0.37,0,*44
1528470182.91,48420,21.13,74288.8,11.59,-0.85,-0.29,0,*4D
1528470184.12,48421,21.06,74284.3,11.57,-0.77,-0.19,0,*4C
1528470185.32,48422,21.06,74284.0,11.59,-0.77,-0.11,0,*49
1528470186.55,48423,21.06,74288.0,11.57,-0.89,-0.19,0,*4F
1528470187.76,48424,21.06,74284.5,11.59,-1.13,-0.65,0,*7F
1528470189.0,48425,21.06,74284.8,11.57,-1.05,-0.57,0,*76
1528470190.24,48426,21.06,74286.5,11.57,-1.09,-0.57,0,*79
1528470191.45,48427,21.06,74284.8,11.57,-1.21,-0.65,0,*73
1528470192.67,48428,21.06,74286.0,11.57,-1.17,-0.53,0,*7C
1528470193.91,48429,21.06,74286.8,11.57,-1.05,-0.33,0,*78
1528470195.15,48430,21.06,74284.8,11.57,-1.09,-0.33,0,*7C
1528470196.36,48431,21.06,74284.3,11.57,-0.81,-0.07,0,*7B
1528470197.58,48432,21.13,74290.3,11.53,-0.81,-0.11,0,*4B
1528470198.81,48433,21.06,74286.0,11.53,-0.85,-0.07,0,*79
1528470200.05,48434,21.06,74286.8,11.53,-0.85,-0.07,0,*7E
1528470201.31,48435,21.06,74284.0,11.53,-1.05,-0.23,0,*70
1528470202.58,48436,21.06,74284.8,11.53,-1.09,-0.23,0,*7F
1528470203.8,48437,21.06,74286.0,11.53,-1.33,-0.49,0,*7B
1528470205.02,48438,21.13,74286.8,11.51,-1.13,-0.33,0,*79
1528470206.24,48439,21.13,74288.5,11.53,-1.33,-0.49,0,*75
1528470207.44,48440,21.06,74282.8,11.51,-1.25,-0.49,0,*7E
1528470208.66,48441,21.06,74284.5,11.53,-1.25,-0.45,0,*71
1528470209.85,48442,21.13,74288.0,11.51,-1.25,-0.33,0,*71
1528470211.09,48443,21.06,74286.3,11.51,-1.13,-0.23,0,*74
1528470212.31,48444,21.06,74286.0,11.51,-1.09,-0.19,0,*71
1528470213.55,48445,21.06,74286.8,11.53,-1.05,-0.07,0,*41
1528470214.78,48446,21.13,74288.3,11.51,-1.13,-0.11,0,*70
1528470216.02,48447,21.06,74284.5,11.49,-1.09,-0.11,0,*73
1528470217.22,48448,21.06,74286.8,11.47,-1.21,-0.19,0,*70
1528470218.44,48449,21.06,74286.5,11.49,-1.17,-0.15,0,*76
1528470219.64,48450,21.06,74286.3,11.47,-1.17,-0.15,0,*70
1528470220.86,48451,21.06,74286.3,11.47,-1.13,-0.07,0,*46
1528470222.08,48452,21.06,74284.3,11.49,-1.17,-0.11,0,*78
1528470223.29,48453,21.06,74284.8,11.47,-1.21,-0.15,0,*76
1528470224.49,48454,21.06,74286.8,11.47,-1.21,-0.15,0,*71
1528470225.71,48455,21.06,74286.5,11.47,-0.93,0.17,0,*67
1528470226.94,48456,21.06,74282.0,11.47,-0.93,0.17,0,*64
1528470228.18,48457,21.06,74286.0,11.47,-1.01,0.21,0,*5A
1528470229.42,48458,21.06,74286.0,11.45,-1.13,0.09,0,*6E
1528470230.65,48459,21.06,74284.3,11.45,-1.13,0.05,0,*63
1528470231.87,48460,21.06,74286.0,11.47,-1.05,0.09,0,*60
1528470233.13,48461,21.06,74284.0,11.45,-1.05,0.17,0,*5C
1528470234.35,48462,21.06,74284.3,11.45,-1.29,-0.03,0,*49
1528470235.61,48463,21.06,74286.0,11.45,-1.05,0.21,0,*5B
1528470236.87,48464,21.06,74286.0,11.45,-1.01,0.25,0,*5C
1528470238.11,48465,21.06,74286.3,11.43,-0.97,0.29,0,*69
1528470239.34,48466,21.06,74286.8,11.43,-0.85,0.37,0,*66
1528470240.59,48467,21.06,74284.8,11.45,-0.89,0.41,0,*6C
1528470241.82,48468,21.06,74284.0,11.45,-0.77,0.47,0,*64
1528470243.08,48469,21.06,74284.5,11.45,-0.89,0.41,0,*62
1528470244.31,48470,21.06,74284.0,11.45,-0.89,0.43,0,*68
1528470245.52,48471,21.06,74284.0,11.43,-0.81,0.51,0,*64
1528470246.75,48472,21.06,74286.0,11.43,-0.85,0.51,0,*63
1528470247.98,48473,21.06,74282.8,11.43,-0.85,0.41,0,*63
1528470249.21,48474,21.06,74286.8,11.43,-0.93,0.37,0,*62
1528470250.42,48475,21.06,74284.8,11.43,-0.81,0.51,0,*60
1528470251.66,48476,21.06,74284.0,11.43,-0.85,0.51,0,*67
1528470252.91,48477,21.06,74284.8,11.41,-1.01,0.41,0,*58
1528470254.17,48478,21.06,74286.8,11.41,-0.89,0.47,0,*60
1528470255.43,48479,21.06,74282.8,11.41,-0.89,0.47,0,*61
1528470256.69,48480,21.06,74286.8,11.41,-1.01,0.37,0,*51
1528470257.92,48481,21.06,74284.5,11.39,-1.09,0.33,0,*53
1528470259.14,48482,21.06,74284.5,11.39,-1.21,0.21,0,*59
1528470260.38,48483,21.06,74286.8,11.39,-0.89,0.51,0,*6C
1528470261.62,48484,21.06,74288.8,11.39,-0.89,0.51,0,*6B
1528470262.88,48485,21.06,74286.8,11.37,-0.89,0.67,0,*61
1528470264.11,48486,21.06,74286.3,11.37,-0.81,0.67,0,*6A
1528470265.35,48487,21.06,74284.5,11.37,-0.77,0.71,0,*65
1528470266.58,48488,21.06,74288.8,11.37,-0.77,0.67,0,*6D
1528470267.82,48489,21.06,74286.3,11.35,-0.89,0.55,0,*6E
1528470269.06,48490,21.13,74288.3,11.37,-0.81,0.59,0,*60
1528470270.3,48491,21.06,74288.0,11.35,-0.89,0.59,0,*6B
1528470271.56,48492,21.06,74284.0,11.37,-0.89,0.67,0,*67
1528470272.82,48493,21.06,74286.0,11.37,-0.89,0.59,0,*6B
1528470274.05,48494,21.06,74286.3,11.35,-0.89,0.67,0,*63
1528470275.28,48495,21.06,74286.0,11.35,-0.89,0.67,0,*62
1528470276.49,48496,21.06,74284.3,11.35,-0.69,0.79,0,*60
1528470277.72,48497,21.06,74286.5,11.35,-0.89,0.71,0,*67
1528470278.98,48498,21.06,74284.5,11.31,-0.85,0.67,0,*67
1528470280.22,48499,21.06,74284.3,11.29,-0.97,0.51,0,*69
1528470281.47,48500,21.06,74288.0,11.31,-0.93,0.63,0,*64
1528470282.73,48501,21.06,74284.0,11.31,-0.93,0.51,0,*64
1528470283.97,48502,21.06,74284.5,11.29,-0.97,0.59,0,*62
1528470285.21,48503,21.06,74286.5,11.31,-0.81,0.63,0,*64
1528470286.45,48504,21.06,74288.5,11.29,-0.97,0.51,0,*6C
1528470287.68,48505,21.06,74286.0,11.29,-0.85,0.75,0,*68
1528470288.92,48506,21.13,74288.3,11.31,-0.81,0.79,0,*6A
1528470290.09,48507,21.06,74284.8,11.25,-0.57,0.97,0,*65
1528470291.33,48508,21.06,74288.3,11.27,-0.77,0.87,0,*6B
1528470292.55,48509,21.06,74284.5,11.27,-0.61,0.87,0,*6D
1528470293.79,48510,21.06,74286.3,11.27,-0.45,1.09,0,*54
1528470295.02,48511,21.06,74288.5,11.27,-0.33,1.13,0,*5F
1528470296.26,48512,21.06,74284.0,11.27,-0.33,1.09,0,*57
1528470297.49,48513,21.06,74286.0,11.27,-0.37,1.13,0,*59
1528470298.67,48514,21.06,74284.5,11.25,-0.49,1.05,0,*52
1528470299.88,48515,21.06,74286.8,11.27,-0.53,1.01,0,*5E
1528470301.09,48516,21.13,74288.0,11.25,-0.69,0.91,0,*6E
1528470302.29,48517,21.06,74282.8,11.25,-0.57,0.95,0,*66
1528470303.47,48518,21.06,74286.0,11.25,-0.53,0.97,0,*6F
1528470304.64,48519,21.06,74284.5,11.25,-0.53,0.97,0,*6E
1528470305.82,48520,21.06,74286.0,11.25,-0.41,0.97,0,*67
1528470307.06,48521,21.06,74286.0,11.23,-0.29,1.17,0,*57
1528470308.27,48522,21.06,74288.3,11.23,-0.41,1.05,0,*59
1528470309.48,48523,21.06,74286.3,11.23,-0.49,0.97,0,*6A
1528470310.71,48524,21.06,74286.0,11.23,-0.37,1.17,0,*5D
1528470311.9,48525,21.06,74286.0,11.21,-0.45,1.05,0,*58
1528470313.11,48526,21.06,74286.3,11.23,-0.49,1.05,0,*55
1528470314.32,48527,21.06,74286.3,11.23,-0.53,0.97,0,*65
1528470315.51,48528,21.06,74286.3,11.21,-0.53,1.01,0,*56
1528470316.7,48529,21.06,74286.3,11.21,-0.57,1.01,0,*53
1528470317.94,48530,21.06,74286.0,11.19,-0.45,1.09,0,*5B
1528470319.18,48531,21.06,74284.8,11.19,-0.45,1.09,0,*5A
1528470320.39,48532,21.06,74286.5,11.19,-0.49,0.97,0,*63
1528470321.63,48533,21.06,74284.3,11.19,-0.37,1.21,0,*57
1528470322.84,48534,21.06,74286.3,11.17,-0.29,1.21,0,*51
1528470324.05,48535,21.06,74284.5,11.17,-0.29,1.21,0,*50
1528470325.32,48536,21.06,74286.3,11.19,-0.27,1.33,0,*50
1528470326.53,48537,21.13,74290.3,11.17,-0.37,1.09,0,*57
1528470327.71,48538,21.06,74286.3,11.17,-0.49,0.97,0,*67
1528470328.92,48539,21.06,74284.0,11.17,-0.29,1.21,0,*5C
1528470330.13,48540,21.06,74286.0,11.17,-0.29,1.21,0,*52
1528470331.37,48541,21.06,74284.8,11.17,-0.27,1.21,0,*5D
1528470332.63,48542,21.06,74284.5,11.15,-0.27,1.17,0,*59
1528470333.87,48543,21.06,74286.8,11.15,-0.19,1.29,0,*58
1528470335.08,48544,21.06,74286.8,11.13,-0.29,1.17,0,*57
1528470336.29,48545,21.06,74286.0,11.13,-0.19,1.33,0,*53
1528470337.51,48546,21.06,74286.8,11.13,-0.11,1.37,0,*5C
1528470338.71,48547,21.06,74286.3,11.13,-0.07,1.47,0,*6D
1528470339.95,48548,21.06,74286.8,11.15,-0.15,1.33,0,*54
1528470341.13,48549,21.06,74284.0,11.13,-0.11,1.41,0,*52
1528470342.35,48550,21.06,74284.8,11.13,-0.19,1.37,0,*53
1528470343.56,48551,21.06,74286.5,11.13,-0.11,1.29,0,*55
1528470344.74,48552,21.06,74286.3,11.13,-0.07,1.41,0,*6F
1528470345.93,48553,21.06,74284.8,11.13,0.01,1.47,0,*43
1528470347.16,48554,21.06,74280.5,11.11,0.05,1.51,0,*45
1528470348.4,48555,21.06,74286.3,11.11,-0.11,1.29,0,*53
1528470349.64,48556,21.06,74284.8,11.11,0.17,1.59,0,*7C
1528470350.89,48557,21.06,74284.0,11.07,0.17,1.55,0,*76
1528470352.14,48558,21.06,74286.8,11.07,0.13,1.47,0,*7E
1528470353.36,48559,21.06,74290.8,11.07,0.05,1.47,0,*48
1528470354.59,48560,21.06,74284.8,11.07,0.05,1.47,0,*42
1528470355.81,48561,21.06,74288.8,11.07,0.05,1.47,0,*43
1528470357.06,48562,21.06,74286.8,11.07,0.17,1.55,0,*70
1528470358.28,48563,21.06,74284.8,11.07,0.01,1.47,0,*45
1528470359.54,48564,21.06,74284.0,11.07,0.29,1.55,0,*7B
1528470360.79,48565,21.06,74284.5,11.07,0.29,1.63,0,*7F
1528470362.02,48566,21.06,74288.0,11.05,0.25,1.55,0,*77
1528470363.25,48567,21.06,74284.0,11.05,0.25,1.51,0,*72
1528470364.44,48568,21.06,74284.8,11.03,0.01,1.41,0,*4C
1528470365.67,48569,21.06,74284.8,11.03,-0.07,1.29,0,*68
1528470366.92,48570,21.06,74286.5,11.03,0.13,1.43,0,*74
1528470368.17,48571,21.06,74284.0,11.03,0.21,1.43,0,*74
1528470369.35,48572,21.06,74282.5,11.01,0.17,1.41,0,*72
1528470370.6,48573,21.06,74284.8,11.03,0.21,1.43,0,*76
1528470371.86,48574,21.06,74286.8,11.03,0.25,1.51,0,*76
1528470373.06,48575,21.06,74284.3,10.99,0.17,1.41,0,*75
1528470374.28,48576,21.06,74286.0,11.01,0.21,1.47,0,*75
1528470375.51,48577,21.06,74286.8,10.99,0.29,1.47,0,*7C
1528470376.75,48578,21.06,74286.3,10.99,0.29,1.51,0,*74
1528470377.98,48579,21.06,74284.0,10.99,0.33,1.63,0,*7F
1528470379.19,48580,21.06,74286.3,10.99,0.43,1.67,0,*7A
1528470380.43,48581,21.06,74284.0,10.99,0.41,1.55,0,*78
1528470381.66,48582,21.06,74284.0,10.99,0.29,1.51,0,*71
1528470382.87,48583,21.06,74288.5,10.99,0.43,1.63,0,*7D
1528470384.08,48584,21.06,74288.8,10.97,0.51,1.63,0,*77
1528470385.29,48585,21.06,74282.0,10.97,0.37,1.63,0,*76
1528470386.5,48586,21.06,74288.5,10.97,0.51,1.71,0,*76
1528470387.75,48587,21.06,74286.3,10.95,0.47,1.59,0,*78
1528470388.95,48588,21.06,74286.3,10.97,0.59,1.71,0,*70
1528470390.16,48589,21.06,74286.0,10.93,0.33,1.51,0,*7B
1528470391.4,48590,21.06,74286.8,10.95,0.37,1.47,0,*76
1528470392.61,48591,21.06,74286.5,10.95,0.43,1.47,0,*74
1528470393.83,48592,21.06,74286.0,10.93,0.51,1.63,0,*74
1528470395.04,48593,21.06,74286.3,10.93,0.51,1.63,0,*75
1528470396.28,48594,21.06,74286.8,10.91,0.51,1.55,0,*75
1528470397.49,48595,21.06,74290.5,10.91,0.43,1.51,0,*73
1528470398.7,48596,21.06,74284.0,10.91,0.43,1.55,0,*74
1528470399.95,48597,21.06,74284.8,10.91,0.55,1.67,0,*73
1528470401.19,48598,21.06,74286.0,10.91,0.59,1.67,0,*70
1528470402.39,48599,21.06,74284.8,10.85,0.67,1.71,0,*7E
1528470403.61,48600,21.06,74286.3,10.89,0.55,1.63,0,*73
1528470404.82,48601,21.06,74286.8,10.89,0.63,1.63,0,*77
1528470406.01,48602,21.06,74286.5,10.89,0.75,1.75,0,*74
1528470407.2,48603,21.06,74288.0,10.89,0.75,1.75,0,*75
1528470408.42,48604,21.06,74286.3,10.85,0.71,1.71,0,*7E
1528470409.63,48605,21.06,74284.3,10.85,0.71,1.67,0,*78
1528470410.83,48606,21.06,74284.5,10.85,0.83,1.79,0,*79
1528470412.03,48607,21.06,74286.3,10.85,0.87,1.83,0,*79
1528470413.22,48608,21.06,74286.3,10.85,0.97,2.01,0,*7E
1528470414.44,48609,21.06,74286.5,10.85,0.95,1.93,0,*75
1528470415.64,48610,21.06,74284.5,10.85,1.05,2.01,0,*4D
1528470416.84,48611,21.06,74286.5,10.89,1.01,2.05,0,*40
1528470418.04,48612,21.06,74286.3,10.85,0.87,1.83,0,*7D
1528470419.28,48613,21.06,74286.8,10.83,0.87,1.89,0,*70
1528470420.5,48614,21.06,74286.5,10.83,1.05,1.93,0,*47
1528470421.76,48615,21.06,74284.0,10.83,1.17,2.09,0,*45
1528470422.97,48616,21.06,74284.3,10.83,0.97,1.93,0,*7F
1528470424.23,48617,21.06,74284.0,10.83,1.09,2.01,0,*40
1528470425.46,48618,21.06,74284.5,10.81,1.13,1.97,0,*4A
1528470426.72,48619,21.06,74284.0,10.83,1.21,2.09,0,*4C
1528470427.94,48620,21.06,74286.5,10.81,1.13,1.97,0,*41
1528470429.2,48621,21.06,74286.3,10.83,1.21,2.01,0,*4F
1528470430.43,48622,21.06,74284.0,10.81,1.25,2.05,0,*4E
1528470431.66,48623,21.06,74286.5,10.81,1.33,2.13,0,*4F
1528470432.89,48624,21.06,74288.8,10.81,1.25,2.05,0,*48
1528470434.12,48625,21.06,74286.5,10.81,1.29,2.05,0,*45
1528470435.35,48626,21.06,74284.5,10.81,1.25,1.97,0,*42
1528470436.58,48627,21.06,74284.8,10.81,1.29,2.05,0,*47
1528470437.8,48628,21.06,74286.8,10.81,1.17,1.89,0,*42
1528470439.02,48629,21.06,74284.3,10.77,1.25,1.93,0,*40
1528470440.27,48630,21.06,74284.8,10.79,1.25,1.97,0,*42
1528470441.53,48631,21.06,74286.3,10.79,1.29,1.97,0,*4F
1528470442.79,48632,21.06,74286.3,10.79,1.33,2.05,0,*4F
1528470444.02,48633,21.06,74284.5,10.77,1.29,2.09,0,*47
1528470445.25,48634,21.06,74284.5,10.77,1.29,2.13,0,*4B
1528470446.5,48635,21.06,74284.3,10.79,1.43,2.25,0,*4D
1528470447.7,48636,21.06,74286.3,10.77,1.41,2.13,0,*47
1528470448.93,48637,21.06,74288.8,10.77,1.51,2.13,0,*47
1528470450.15,48638,21.06,74290.3,10.77,1.59,2.25,0,*45
1528470451.37,48639,21.06,74286.0,10.77,1.47,2.13,0,*4E
1528470452.57,48640,21.06,74286.3,10.77,1.41,2.13,0,*46
1528470453.77,48641,21.06,74284.3,10.77,1.41,2.01,0,*44
1528470454.98,48642,21.06,74286.0,10.77,1.51,2.21,0,*44
1528470456.21,48643,21.06,74284.3,10.75,1.59,2.27,0,*49
1528470457.43,48644,21.06,74286.3,10.75,1.59,2.27,0,*4E
1528470458.65,48645,21.06,74284.0,10.75,1.59,2.27,0,*4F
1528470459.91,48646,21.06,74286.3,10.75,1.37,1.97,0,*4C
1528470461.13,48647,21.06,74284.8,10.73,1.47,2.09,0,*48
1528470462.36,48648,21.06,74284.5,10.73,1.59,2.17,0,*47
1528470463.55,48649,21.06,74284.5,10.73,1.59,2.27,0,*45
1528470464.77,48650,21.06,74284.8,10.73,1.59,2.21,0,*4B
1528470466.0,48651,21.06,74286.8,10.75,1.59,2.27,0,*4A
1528470467.22,48652,21.06,74284.0,10.73,1.71,2.21,0,*43
1528470468.39,48653,21.06,74286.0,10.73,1.79,2.31,0,*4B
1528470469.56,48654,21.06,74288.0,10.73,1.79,2.31,0,*4C
1528470470.73,48655,21.06,74284.8,10.73,1.79,2.31,0,*4D
1528470471.95,48656,21.06,74288.5,10.73,1.67,2.21,0,*40
1528470473.15,48657,21.06,74284.0,10.73,1.67,2.27,0,*47
1528470474.32,48658,21.06,74286.3,10.73,1.79,2.27,0,*47
1528470475.55,48659,21.06,74284.0,10.73,1.71,2.21,0,*48
1528470476.78,48660,21.06,74284.8,10.73,1.71,2.17,0,*47
1528470478.03,48661,21.06,74284.0,10.71,1.67,2.25,0,*42
1528470479.25,48662,21.06,74284.3,10.73,1.71,2.21,0,*40
1528470480.51,48663,21.06,74286.3,10.71,1.55,2.01,0,*47
1528470481.77,48664,21.06,74288.8,10.71,1.67,2.25,0,*47
1528470482.97,48665,21.06,74286.8,10.71,1.75,2.27,0,*47
1528470484.18,48666,21.06,74286.3,10.69,1.75,2.17,0,*4E
1528470485.43,48667,21.06,74286.3,10.71,1.63,2.01,0,*46
1528470486.66,48668,21.06,74284.8,10.69,1.63,2.01,0,*40
1528470487.89,48669,21.06,74288.0,10.69,1.63,2.05,0,*45
1528470489.1,48670,21.06,74286.3,10.69,1.75,2.05,0,*4A
1528470490.3,48671,21.06,74284.8,10.69,1.75,2.13,0,*4C
1528470491.51,48672,21.06,74284.5,10.69,1.79,2.25,0,*46
1528470492.72,48673,21.06,74288.5,10.69,1.79,2.17,0,*46
1528470493.91,48674,21.06,74286.8,10.67,1.83,2.25,0,*4B
1528470495.11,48675,21.06,74288.5,10.67,1.79,2.21,0,*4B
1528470496.32,48676,21.06,74286.5,10.67,1.75,2.13,0,*45
1528470497.51,48677,21.06,74288.0,10.67,1.83,2.21,0,*4C
1528470498.72,48678,21.06,74284.3,10.63,1.85,2.27,0,*47
1528470499.92,48679,21.06,74284.0,10.67,1.85,2.31,0,*45
1528470501.15,48680,21.06,74286.3,10.63,1.93,2.39,0,*48
1528470502.38,48681,21.06,74284.5,10.63,1.97,2.43,0,*40
1528470503.61,48682,21.06,74286.8,10.63,1.85,2.21,0,*44
1528470504.84,48683,21.06,74284.5,10.63,1.85,2.21,0,*45
1528470506.07,48684,21.06,74282.5,10.63,1.67,1.97,0,*40
1528470507.29,48685,21.06,74284.8,10.67,1.71,2.01,0,*4E
1528470508.49,48686,21.06,74288.0,10.63,1.83,2.09,0,*4C
1528470509.7,48687,21.06,74286.3,10.63,1.79,2.09,0,*48
1528470510.93,48688,21.06,74286.3,10.59,1.89,2.25,0,*4F
1528470512.18,48689,21.06,74286.5,10.61,1.97,2.39,0,*47
1528470513.41,48690,21.06,74286.8,10.61,1.85,2.27,0,*43
1528470514.64,48691,21.06,74288.0,10.59,1.67,2.01,0,*41